Powrót do katalogu

ATLAS 5 CENTAUR DEB

AktywnyHEO
NORAD 43954·DEBRIS·🇺🇸 United States

Wystrzelony Sep 17, 2014 z Cape Canaveral Space Force Station

Loading…

Następne Przeloty (najbliższe 24 godziny)

TLE

ŚwieżeSource: Space-Track

Epoka: Sep 13, 2026, 20:00 UTC

1 43954U 14055H   26256.83374380 -.00000128  00000-0  00000-0 0  9999
2 43954  20.6841 118.1567 4820342 213.5936 103.5768  1.89366274 55522

Śledź ATLAS 5 CENTAUR DEB w czasie rzeczywistym z AllMySat

Download on the App Store